Regional Weather Roundup
Issued by NWS

Home | Current Version | Previous Version | Graphics & Text | Print | Product List | Glossary On
Versions: 1 2 3 4 5 6 7 8 9 10 11 12 13 14 15 16 17 18 19 20 21 22 23 24 25 26 27 28 29 30 31 32 33 34 35 36 37 38 39 40 41 42 43 44 45 46 47 48 49 50
000
ASUS45 KTFX 220219
RWRMT
MONTANA HOURLY WEATHER ROUNDUP
NATIONAL WEATHER SERVICE GREAT FALLS MT
819 PM MDT TUE OCT 21 2014

NOTE: "FAIR" INDICATES FEW OR NO CLOUDS BELOW 12000 FEET WITH NO
SIGNIFICANT WEATHER AND/OR OBSTRUCTIONS TO VISIBILITY.

* THESE STATIONS ARE NOT UNDER NWS QUALITY CONTROL. THEY DO NOT
   REPORT WEATHER SUCH AS PRECIPITATION OR FOG.

MTZ001>007-043-220300-
WEST OF THE DIVIDE
CITY           SKY/WX    TMP DP  RH WIND       PRES   REMARKS
KALISPELL      CLOUDY    45  43  93 S3        29.95R
MISSOULA       MOCLDY    45  43  93 CALM      30.01R
BUTTE          MOCLDY    37  34  89 NW3       30.02R
MULLAN PASS    CLOUDY    36  36 100 VRB3      30.00R
* ESSEX        N/A       43  41  93 N/A        N/A
* LINCOLN      N/A       41  37  86 SW4G10     N/A
* POLSON       N/A       42  40  93 SE2        N/A
* RONAN APT    PTCLDY    46  43  89 N/A        N/A
* SEELEY LAKE  N/A       42  41  96 N/A        N/A
* THOMP F APT  CLEAR     39  27  62 N6G13      N/A   WCI  35
$$

MTZ008-052>055-220300-
SOUTHWEST MONTANA
CITY           SKY/WX    TMP DP  RH WIND       PRES   REMARKS
BOZEMAN        CLOUDY    43  37  79 E5        30.01R
DILLON         LGT RAIN  39  34  82 SW12      30.02R WCI  32
W YELLOWSTONE  PTCLDY    32  32 100 S3        30.06R
* THREE FORKS  CLOUDY    43  -9  10 N/A        N/A
* BOULDER HILL N/A       39  33  79 W1         N/A
* MONIDA PASS  N/A       33  32  96 N/A        N/A
* RAYNOLDS PAS N/A       34   7  32 E1         N/A
* WHITEHALL    N/A       43  37  79 W9G18      N/A
* WISE RIVER   N/A       40  33  76 NW6G14     N/A   WCI  36
$$

MTZ009>010-012-014-046-048-049-054-220300-
EAST SLOPES AND CENTRAL MONTANA
CITY           SKY/WX    TMP DP  RH WIND       PRES   REMARKS
CUT BANK       CLOUDY    46  37  71 W17       29.81R
GREAT FALLS    CLOUDY    45  41  86 SW14      29.85R
HELENA         CLOUDY    48  36  63 W9G20     29.96R
MALMSTROM AFB  CLOUDY    45  43  93 S13       29.87R
* CONRAD       CLOUDY    45  45 100 N/A        N/A
* DEARBORN     N/A       48  38  68 S1G9       N/A
* EAST GLACIER N/A       42  34  73 W24G35     N/A
* MONARCH      N/A       38  33  82 SW9        N/A   WCI  32
* PENDROY      N/A       45  36  71 NW9        N/A
* ROGERS PASS  N/A       38  35  89 SE18G26    N/A   WCI  28
* SAINT MARY   N/A       46  33  61 S10G19     N/A
* SWEET GRASS  N/A       48  42  80 W16G22     N/A
* WHITE SULPH  N/A       37  34  89 S8G14      N/A   WCI  31
$$

MTZ011-013-016-021-035-040-045-047-050-051-220300-
NORTH CENTRAL MONTANA
CITY           SKY/WX    TMP DP  RH WIND       PRES   REMARKS
HAVRE          CLOUDY    50  48  93 SW13      29.77R
LEWISTOWN      LGT RAIN  45  39  80 NW17      29.86R
* CHINOOK      MOCLDY    52  46  80 W12G17    29.75R
* FORT BENTON  CLOUDY    46  45  96 S7        29.86R
* CHESTER      N/A       48  46  93 SW4        N/A
* DENTON       N/A       46  41  83 W22G28     N/A
* GEYSER       N/A       42  39  89 SW16G24    N/A
* JUDITH GAP   N/A       45  39  80 W5G14      N/A
* LOMA         N/A       48  45  89 SW12G19    N/A
$$

MTZ017>020-022>027-061-062-220300-
NORTHEAST MONTANA
CITY           SKY/WX    TMP DP  RH WIND       PRES   REMARKS
GLASGOW        CLOUDY    57  45  64 NW9       29.65R
GLENDIVE       PTCLDY    61  43  52 W9        29.64R
JORDAN         CLOUDY    57  45  64 W12       29.71R
SIDNEY         CLEAR     52  41  66 CALM      29.61R
WOLF POINT     MOCLDY    61  45  56 W12       29.62R
* BEAVER HILL  N/A       62  39  43 S10        N/A
* CIRCLE       N/A       62  48  60 W9         N/A
* LINDSAY DVD  N/A       64  43  47 SW13       N/A
* NAVAJO       N/A       58  43  58 W6         N/A
$$

MTZ028>042-056>058-220300-
SOUTHCENTRAL AND SOUTHEAST MONTANA
CITY           SKY/WX    TMP DP  RH WIND       PRES   REMARKS
BAKER          LGT RAIN  72  43  35 N/A       29.67R
BILLINGS       MOCLDY    54  30  40 W26G43    29.82R
LIVINGSTON     CLOUDY    46  34  63 SW28G36   29.95R
MILES CITY     LGT RAIN  70  43  38 NE5       29.66R
* LAUREL APT   CLOUDY    52  28  40 W29G39     N/A
* ROUNDUP APT  MOCLDY    52  32  47 W22G29     N/A
* ALZADA       N/A       61  39  44 SE4        N/A
* HYSHAM       N/A       65  30  27 W16G24     N/A
* LAME DEER    N/A       64  35  34 W14G19     N/A
* REED POINT   N/A       49  32  52 W22G33     N/A
* ROSCOE HILL  N/A       51  15  24 SW16G36    N/A
$$

REGIONAL REPORTS...DAKOTAS
CITY           SKY/WX    TMP DP  RH WIND       PRES   REMARKS
WILLISTON      PTCLDY    55  43  64 CALM      29.58R
DICKINSON      CLEAR     57  45  64 S9        29.61S
BEACH          N/A       48  39  71 SW6       29.63S
CROSBY         CLEAR     48  39  71 CALM      29.59F
TIOGA          CLEAR     50  45  83 E3        29.62S
BISMARCK       CLEAR     66  43  43 SE12      29.68R
GRAND FORKS    CLEAR     57  41  55 S21G36    29.85S
FARGO          CLEAR     57  41  55 SE23G36   29.91R
BUFFALO SD     PTCLDY    64  41  43 S14       29.60S
RAPID CITY     PTCLDY    64  45  50 SW7       29.76R
$$

REGIONAL REPORTS...WYOMING/IDAHO/WASHINGTON
CITY           SKY/WX    TMP DP  RH WIND       PRES   REMARKS
GILLETTE       CLOUDY    64  34  33 SW13      29.78R
SHERIDAN       MOCLDY    64  36  35 NW3       29.75R
CODY           PTCLDY   N/A N/A N/A SW17G24   29.92R
YELLOWSTONE LA MOCLDY    34  28  79 W6        30.07S WCI  29
SALMON         MOCLDY   N/A N/A N/A N/A        N/A
MULLAN PASS    CLOUDY    36  36 100 VRB3      30.00S
SAND POINT     CLOUDY    46  46 100 CALM      29.96R
SPOKANE        FAIR      52  43  72 S7        29.97R
$$

REGIONAL REPORTS...ALBERTA
CITY           SKY/WX    TMP DP  RH WIND       PRES   REMARKS
CALGARY        PTCLDY    52  27  38 W6        29.74R
LETHBRIDGE     MOCLDY    54  34  47 W23G35    29.75R
MEDICINE HAT   LGT RAIN  50  48  93 W3        29.71R
EDMONTON       PTCLDY    37  32  82 S7        29.69R WCI  32
WATERTON GATE  N/A       48  30  50 SW17G30    N/A
CARDSTON       N/A       48  34  59 W12        N/A
MILK RIVER     N/A       48  39  71 W14        N/A
$$

REGIONAL REPORTS...SASKATCHEWAN
CITY           SKY/WX    TMP DP  RH WIND       PRES   REMARKS
SWIFT CURRENT  MOCLDY    54  39  57 W16       29.63R
REGINA         MOCLDY    55  45  69 SE14      29.57S
VAL MARIE      N/A       54  43  67 NW10       N/A
ASSINIBOIA     N/A       52  41  66 W8         N/A
CORONACH       N/A       46  37  71 NW2        N/A

$$




USA.gov is the U.S. government's official web portal to all federal, state and local government web resources and services.